Orbital Elements at Epoch 2459200.5 (2020-Dec-17.0) TDB
Reference: JPL 14 (heliocentric ecliptic J2000)
Element | Value | Uncertainty (1-sigma) | Units |
e | .6657402189588264 | 7.6485e-07 | |
a | .8782633680019633 | 5.4086e-08 | au |
q | .2935681210848199 | 6.6411e-07 | au |
i | 23.31097642274236 | 7.0548e-05 | deg |
node | 317.5996181219044 | 1.899e-05 | deg |
peri | 13.85494474328281 | 6.4859e-05 | deg |
M | 186.13865375112 | 0.00014221 | deg |
tp | 2459345.689803536515 (2021-May-11.18980354) | 0.00012669 | TDB |
period | 300.6322589859857 0.82 | 2.7771e-05 7.603e-08 | d yr |
n | 1.197476282865512 | 1.1062e-07 | deg/d |
Q | 1.462958614919107 | 9.0093e-08 | au |
|
| | Orbit Determination Parameters
Additional Information
|